Regional Weather Roundup
Issued by NWS Kansas City/Pleasant Hill, MO

Home | Current Version | Previous Version | Text Only | Print | Product List | Glossary On
Versions: 1 2 3 4 5 6 7 8 9 10 11 12 13 14 15 16 17 18 19 20 21 22 23 24 25 26 27 28 29 30 31 32 33 34 35 36 37 38 39 40 41 42 43 44 45 46 47 48 49 50
000
ASUS43 KEAX 240804
RWREAX

WEATHER ROUNDUP FOR EASTERN KANSAS AND NORTHWEST MISSOURI
NATIONAL WEATHER SERVICE KANSAS CITY/PLEASANT HILL MO
300 AM CDT THU JUL 24 2014

KSZ040-057-103>105-MOZ028-029-037-043-240900-
...KANSAS CITY METROPOLITAN AREA...

CITY           SKY/WX    TMP DP  RH WIND       PRES   REMARKS
K.C. INTL      PTCLDY    69  60  73 E9        30.13F
K.C. DOWNTOWN  CLEAR     71  61  70 E8        30.11F
LEES SUMMIT    CLEAR     67  61  81 E6        30.13F
OLATHE - IXD   CLEAR     69  62  78 E7        30.12F
OLATHE - OJC   CLEAR     68  62  81 E7        30.11F
LAWRENCE       CLEAR     69  62  78 NE8       30.12F

$$

MOZ001>008-011>017-020>025-030>033-038>040-044>046-053-054-240900-
...NORTHERN AND CENTRAL MISSOURI...

CITY           SKY/WX    TMP DP  RH WIND       PRES   REMARKS
ST. JOSEPH     CLEAR     68  60  75 E5        30.14F
MOSBY          SUNNY     64  61  88 CALM      30.13F
WHITEMAN AFB   CLEAR     65  59  81 NE1       30.11F
CLINTON        CLEAR     66  64  94 CALM      30.11S
SEDALIA        CLEAR     66  60  81 NE3       30.12F
WARSAW         NOT AVBL
MARSHALL       CLEAR     68  63  83 NE5       30.14S
CHILLICOTHE      N/A     62  58  86 CALM      30.16S
KIRKSVILLE     CLEAR     59  57  93 N3        30.15F

$$

MOZ041-047>049-056>058-063>065-088>090-097-240900-
...EASTERN AND SOUTHERN MISSOURI...

CITY           SKY/WX    TMP DP  RH WIND       PRES   REMARKS
ST. LOUIS INTL CLEAR     66  53  63 NE9       30.10F
SPIRIT OF STL  CLEAR     57  56  96 SW3       30.09F
COLUMBIA       CLEAR     62  58  86 NE6       30.12F
JEFFERSON CITY CLEAR     67  60  78 NE7       30.10F
HANNIBAL       CLEAR     61  57  88 CALM      30.13S
ROLLA          CLEAR     63  59  87 NE6       30.09F
OSAGE BEACH    CLEAR     66  61  82 CALM      30.10S
SPRINGFIELD    CLEAR     70  65  84 NE7       30.08F
BRANSON        PTCLDY    68  68 100 CALM      30.09S FOG
NEVADA         CLEAR     66  64  94 NE6       30.11S
JOPLIN         CLEAR     69  66  90 NE6       30.07F
WEST PLAINS    CLEAR     69  65  86 NE7       30.09S

$$

IAZ060-094-KSZ022-034>040-054-083-096-NEZ052-066-093-240900-
...KANSAS...SOUTHEAST NEBRASKA AND IOWA...

CITY           SKY/WX    TMP DP  RH WIND       PRES   REMARKS
TOPEKA         CLEAR     70  64  81 E6        30.12S
MANHATTAN      PTCLDY    66  63  90 CALM      30.11F
EMPORIA        CLEAR     66  64  93 NE5       30.11F
CHANUTE        CLEAR     71  64  78 NE7       30.09F
WICHITA        CLEAR     72  65  78 E7        30.10F
OMAHA          CLEAR     70  60  70 SE7       30.15F
LINCOLN        CLEAR     72  62  71 SE10      30.14F
FALLS CITY     CLEAR     65  62  90 E5        30.13F
LAMONI         CLEAR     64  58  80 N3        30.17S
DES MOINES     CLEAR     66  59  78 CALM      30.16S

$$



USA.gov is the U.S. government's official web portal to all federal, state and local government web resources and services.